VK3HUG-13 Weather Reports


time (UTC)temp
C
wind
direction
speed
KPH
gust
KPH
rain 1hr
cm
rain 24hr
cm
rain mn
cm
humidity
%
barometer
mb
20260510190007 4 315 1.6 0.0 0.00 0.00 0.00 100 1030.2
20260510184506 4 315 1.6 0.0 0.00 0.00 0.00 100 1030.2
20260510183006 5 315 0.0 0.0 0.00 0.00 0.00 100 1030.2
20260510181507 5 315 0.0 0.0 0.00 0.00 0.00 100 1030.2
20260510180007 5 315 1.6 0.0 0.00 0.00 0.00 99 1030.2
20260510174507 5 315 0.0 0.0 0.00 0.00 0.00 99 1030.2
20260510173007 5 315 1.6 0.0 0.00 0.00 0.00 99 1030.2
20260510171506 4 315 1.6 0.0 0.00 0.00 0.00 99 1030.2
20260510170007 4 315 1.6 0.0 0.00 0.00 0.00 99 1030.2
20260510164507 4 315 1.6 0.0 0.00 0.00 0.00 98 1030.2
20260510163007 4 293 1.6 0.0 0.00 0.00 0.00 98 1030.2
20260510161508 4 315 1.6 0.0 0.00 0.00 0.00 98 1030.2
20260510160007 4 293 1.6 0.0 0.00 0.00 0.00 98 1030.2
20260510154506 4 315 1.6 0.0 0.00 0.00 0.00 97 1030.2
20260510153007 5 315 1.6 0.0 0.00 0.00 0.00 97 1030.2
20260510151507 5 270 0.0 0.0 0.00 0.00 0.00 97 1030.2
20260510150007 5 270 1.6 0.0 0.00 0.00 0.00 97 1030.2
20260510144506 5 292 3.2 0.0 0.00 0.00 0.00 97 1030.2
20260510143006 5 270 1.6 0.0 0.00 0.00 0.00 96 1030.2
20260510141508 5 293 1.6 0.0 0.00 0.00 0.00 96 1030.2
20260510140006 5 315 1.6 0.0 0.00 0.00 0.00 95 1030.2
20260510134506 5 293 1.6 0.0 0.00 0.00 0.00 94 1030.2
20260510133007 5 293 0.0 0.0 0.00 0.00 0.00 94 1030.2
20260510131507 5 270 1.6 0.0 0.00 0.00 0.00 94 1030.2
20260510130007 5 315 0.0 0.0 0.00 0.00 0.00 93 1030.2
20260510124507 6 315 0.0 0.0 0.00 0.00 0.00 92 1030.2
20260510123007 6 315 1.6 0.0 0.00 0.00 0.00 92 1030.2
20260510121508 6 315 0.0 0.0 0.00 0.00 0.00 91 1030.2
20260510120007 7 293 3.2 0.0 0.00 0.00 0.00 91 1030.2
20260510114507 7 293 1.6 0.0 0.00 0.00 0.00 91 1030.2
20260510113006 7 270 1.6 0.0 0.00 0.00 0.00 91 1030.2
20260510111506 7 270 1.6 0.0 0.00 0.00 0.00 91 1030.2
20260510110006 7 270 1.6 0.0 0.00 0.00 0.00 91 1030.2
20260510104507 7 270 1.6 0.0 0.00 0.00 0.00 91 1030.2
20260510103007 7 270 1.6 0.0 0.00 0.00 0.00 90 1030.2
20260510101507 7 315 1.6 0.0 0.00 0.00 0.00 89 1030.2
20260510100006 7 270 3.2 0.0 0.00 0.00 0.00 89 1030.2
20260510094507 7 270 0.0 0.0 0.00 0.00 0.00 87 1030.2
20260510093007 7 225 1.6 0.0 0.00 0.00 0.00 85 1030.2
20260510091506 8 225 3.2 0.0 0.00 0.00 0.00 83 1030.2
20260510090006 9 225 3.2 0.0 0.00 0.00 0.00 83 1030.2
20260510084507 9 225 1.6 0.0 0.00 0.00 0.00 82 1030.2
20260510083007 9 225 3.2 0.0 0.00 0.00 0.00 82 1030.2
20260510081507 9 180 3.2 0.0 0.00 0.00 0.00 82 1030.2
20260510080006 10 180 3.2 0.0 0.00 0.00 0.00 81 1030.2
20260510074506 10 180 1.6 0.0 0.00 0.00 0.00 80 1030.2
20260510073007 10 180 3.2 0.0 0.00 0.00 0.00 78 1030.2
20260510071507 13 180 4.8 0.0 0.00 0.00 0.00 68 1030.2
20260510070006 13 180 4.8 0.0 0.00 0.00 0.00 68 1030.2
20260510065326 13 180 4.8 0.0 0.00 0.00 0.00 68 1030.2
20260510062440 13 169 6.4 0.0 0.00 0.00 0.00 66 1030.2
20260510061218 14 158 6.4 0.0 0.00 0.00 0.00 63 1030.2